Date String (YYYY-MM-DD hh:mm:ss) UTC,Instrument flags,Ambient pressure (hPa),Sample flow (lpm),Bypass flow (lpm),Sample temperature (°C),Ambient temperature (°C),ASC tube jacket temperature (°C),LED temperature (°C),Box temperature (°C),Sample RH (%),Span deviation,Mass concentration (μg/m³),Mass concentration (μg/m³),Mass concentration (μg/m³)
DateTimeUTC,F1_M11,P_M11,Q1_M11,Q2_M11,T1_M11,T2_M11,T3_M11,T4_M11,T5_M11,U1_M11,ZSPAN_M11,X0_M11,X2_M11,X1_M11
2022-03-03 10:00:00,,0827.3,5.00,0.00,27.5,26.7,00.0,36.6,29.3,09.5,0000.0,0001.57,0000.88,0000.66
2022-03-03 10:01:00,,0827.3,5.00,0.00,27.5,26.7,00.0,36.5,29.2,09.5,0000.0,0001.61,0000.90,0000.66
2022-03-03 10:02:00,,0827.3,5.00,0.00,27.5,26.6,00.0,36.5,29.2,09.6,0000.0,0002.06,0000.95,0000.68
2022-03-03 10:03:00,,0827.3,5.00,0.00,27.5,26.6,00.0,36.5,29.2,09.7,0000.0,0003.59,0001.02,0000.72
2022-03-03 10:04:00,,0827.3,5.00,0.00,27.4,26.6,00.0,36.5,29.2,09.8,0000.0,0003.69,0001.07,0000.76
2022-03-03 10:05:00,,0827.2,4.99,0.00,27.4,26.6,00.0,36.5,29.2,09.8,0000.0,0003.82,0001.15,0000.81
2022-03-03 10:06:00,,0827.2,4.99,0.00,27.4,26.6,00.0,36.5,29.2,09.9,0000.0,0003.91,0001.20,0000.87
2022-03-03 10:07:00,,0827.3,4.99,0.00,27.4,26.6,00.0,36.5,29.2,09.9,0000.0,0004.07,0001.29,0000.92
2022-03-03 10:08:00,,0827.3,5.00,0.00,27.4,26.6,00.0,36.5,29.2,09.9,0000.0,0004.26,0001.39,0000.97
2022-03-03 10:09:00,,0827.3,5.01,0.00,27.4,26.6,00.0,36.5,29.2,09.8,0000.0,0004.35,0001.47,0001.02
2022-03-03 10:10:00,,0827.3,5.00,0.00,27.4,26.6,00.0,36.5,29.2,09.7,0000.0,0004.38,0001.52,0001.05
2022-03-03 10:11:00,,0827.3,5.01,0.00,27.4,26.6,00.0,36.5,29.2,09.7,0000.0,0004.34,0001.54,0001.07
2022-03-03 10:12:00,,0827.3,5.00,0.00,27.4,26.6,00.0,36.5,29.2,09.6,0000.0,0004.42,0001.60,0001.11
2022-03-03 10:13:00,,0827.3,5.00,0.00,27.4,26.6,00.0,36.5,29.1,09.6,0000.0,0004.91,0001.63,0001.13
2022-03-03 10:14:00,,0827.3,5.01,0.00,27.4,26.6,00.0,36.5,29.1,09.7,0000.0,0003.29,0001.63,0001.15
2022-03-03 10:15:00,,0827.3,5.00,0.00,27.4,26.6,00.0,36.4,29.1,09.7,0000.0,0003.17,0001.60,0001.14
2022-03-03 10:16:00,,0827.3,4.99,0.00,27.4,26.6,00.0,36.4,29.1,09.6,0000.0,0003.09,0001.55,0001.13
2022-03-03 10:17:00,,0827.3,4.99,0.00,27.4,26.5,00.0,36.4,29.1,09.6,0000.0,0004.35,0001.55,0001.12
2022-03-03 10:18:00,,0827.3,5.01,0.00,27.4,26.5,00.0,36.4,29.1,09.5,0000.0,0004.42,0001.48,0001.09
2022-03-03 10:19:00,,0827.3,5.01,0.00,27.3,26.5,00.0,36.4,29.1,09.5,0000.0,0004.74,0001.42,0001.07
2022-03-03 10:20:00,,0827.3,5.00,0.00,27.3,26.5,00.0,36.4,29.1,09.5,0000.0,0004.66,0001.38,0001.05
2022-03-03 10:21:00,,0827.4,5.01,0.00,27.3,26.5,00.0,36.4,29.0,09.5,0000.0,0004.71,0001.40,0001.04
2022-03-03 10:22:00,,0827.4,5.00,0.00,27.3,26.4,00.0,36.4,29.0,09.6,0000.0,0004.75,0001.39,0001.04
2022-03-03 10:23:00,,0827.4,5.00,0.00,27.3,26.4,00.0,36.4,29.0,09.5,0000.0,0004.85,0001.41,0001.05
2022-03-03 10:24:00,,0827.4,5.00,0.00,27.3,26.4,00.0,36.4,29.0,09.5,0000.0,0004.48,0001.46,0001.06
2022-03-03 10:25:00,,0827.4,5.01,0.00,27.3,26.4,00.0,36.4,29.0,09.5,0000.0,0004.29,0001.44,0001.05
2022-03-03 10:26:00,,0827.4,5.00,0.00,27.3,26.4,00.0,36.4,29.0,09.5,0000.0,0004.56,0001.46,0001.05
2022-03-03 10:27:00,,0827.4,5.00,0.00,27.3,26.4,00.0,36.3,29.0,09.6,0000.0,0004.61,0001.46,0001.05
2022-03-03 10:28:00,,0827.4,4.99,0.00,27.2,26.4,00.0,36.3,29.0,09.6,0000.0,0003.22,0001.42,0001.05
2022-03-03 10:29:00,,0827.4,4.99,0.00,27.2,26.4,00.0,36.3,29.0,09.6,0000.0,0002.96,0001.42,0001.05
2022-03-03 10:30:00,,0827.4,4.99,0.00,27.2,26.4,00.0,36.3,29.0,09.6,0000.0,0002.40,0001.41,0001.05
2022-03-03 10:31:00,,0827.3,5.01,0.00,27.2,26.4,00.0,36.3,29.0,09.6,0000.0,0002.75,0001.41,0001.05
2022-03-03 10:32:00,,0827.3,5.00,0.00,27.2,26.4,00.0,36.3,28.9,09.6,0000.0,0003.37,0001.34,0001.04
2022-03-03 10:33:00,,0827.3,5.00,0.00,27.2,26.4,00.0,36.3,29.0,09.6,0000.0,0003.63,0001.36,0001.05
2022-03-03 10:34:00,,0827.3,5.00,0.00,27.2,26.4,00.0,36.3,29.0,09.5,0000.0,0004.15,0001.36,0001.06
2022-03-03 10:35:00,,0827.3,5.00,0.00,27.2,26.4,00.0,36.3,28.9,09.6,0000.0,0005.02,0001.31,0001.06
2022-03-03 10:36:00,,0827.3,5.00,0.00,27.2,26.4,00.0,36.2,28.9,09.8,0000.0,0005.04,0001.32,0001.07
2022-03-03 10:37:00,,0827.3,5.00,0.00,27.2,26.3,00.0,36.2,28.9,09.7,0000.0,0004.80,0001.33,0001.09
2022-03-03 10:38:00,,0827.3,4.99,0.00,27.1,26.3,00.0,36.2,28.9,09.6,0000.0,0004.80,0001.35,0001.09
2022-03-03 10:39:00,,0827.3,5.00,0.00,27.1,26.3,00.0,36.2,28.9,09.6,0000.0,0004.88,0001.40,0001.12
2022-03-03 10:40:00,,0827.3,5.00,0.00,27.1,26.3,00.0,36.2,28.9,09.6,0000.0,0005.27,0001.46,0001.15
2022-03-03 10:41:00,,0827.3,5.00,0.00,27.1,26.3,00.0,36.2,28.9,09.6,0000.0,0005.56,0001.52,0001.19
2022-03-03 10:42:00,,0827.3,5.00,0.00,27.1,26.3,00.0,36.2,28.9,09.6,0000.0,0006.81,0001.53,0001.22
2022-03-03 10:43:00,,0827.4,5.00,0.00,27.1,26.3,00.0,36.2,28.9,09.6,0000.0,0006.10,0001.58,0001.25
2022-03-03 10:44:00,,0827.4,4.99,0.00,27.1,26.3,00.0,36.2,28.9,09.7,0000.0,0005.92,0001.62,0001.26
2022-03-03 10:45:00,,0827.4,5.01,0.00,27.1,26.3,00.0,36.2,28.9,09.7,0000.0,0005.46,0001.61,0001.28
2022-03-03 10:46:00,,0827.3,5.01,0.00,27.1,26.3,00.0,36.2,28.9,09.9,0000.0,0004.57,0001.64,0001.28
2022-03-03 10:47:00,,0827.3,5.00,0.00,27.1,26.3,00.0,36.2,28.9,09.8,0000.0,0005.10,0001.68,0001.30
2022-03-03 10:48:00,,0827.3,4.99,0.00,27.1,26.3,00.0,36.1,28.9,09.7,0000.0,0005.38,0001.73,0001.34
2022-03-03 10:49:00,,0827.3,5.01,0.00,27.1,26.3,00.0,36.1,28.9,09.7,0000.0,0005.64,0001.83,0001.41
2022-03-03 10:50:00,,0827.3,5.00,0.00,27.1,26.3,00.0,36.1,28.9,09.7,0000.0,0005.67,0001.85,0001.44
2022-03-03 10:51:00,,0827.4,5.00,0.00,27.1,26.3,00.0,36.1,28.9,09.7,0000.0,0005.38,0001.83,0001.46
2022-03-03 10:52:00,,0827.4,5.00,0.00,27.1,26.3,00.0,36.1,28.9,09.7,0000.0,0005.26,0001.88,0001.49
2022-03-03 10:53:00,,0827.4,5.00,0.00,27.1,26.3,00.0,36.1,28.9,09.8,0000.0,0003.73,0001.91,0001.50
2022-03-03 10:54:00,,0827.4,5.01,0.00,27.1,26.3,00.0,36.1,28.9,09.7,0000.0,0003.70,0001.89,0001.50
2022-03-03 10:55:00,,0827.4,4.99,0.00,27.1,26.3,00.0,36.1,28.9,09.7,0000.0,0003.66,0001.87,0001.49
2022-03-03 10:56:00,,0827.4,5.00,0.00,27.1,26.3,00.0,36.1,28.8,09.7,0000.0,0003.47,0001.83,0001.47
2022-03-03 10:57:00,,0827.4,5.00,0.00,27.1,26.3,00.0,36.1,28.8,09.7,0000.0,0003.40,0001.81,0001.47
2022-03-03 10:58:00,,0827.4,5.00,0.00,27.0,26.3,00.0,36.1,28.8,09.7,0000.0,0002.96,0001.82,0001.47
2022-03-03 10:59:00,,0827.4,5.00,0.00,27.0,26.3,00.0,36.1,28.8,09.7,0000.0,0002.72,0001.79,0001.46
